Location: Fort Hays State University
(38.8712°N, 99.3432°W)
Time: 03:10:02
(UTC-05:00)

Cosmos 2279 Rocket - Visible Passes

Search period start: 30 August 2014 00:00
Search period end: 09 September 2014 00:00
Orbit: 965 x 979 km, 83.0° (Epoch: 28 August)

Date Brightness Start Highest point End Pass type
(mag) Time Alt. Az. Time Alt. Az. Time Alt. Az.
30 Aug 5.6 00:52:24 10° N 00:55:19 30° N 00:55:19 30° N visible
30 Aug 5.9 23:32:35 10° NNE 23:34:55 18° NE 23:34:55 18° NE visible
31 Aug 5.8 01:17:00 10° NNW 01:19:30 25° NNW 01:19:30 25° NNW visible
31 Aug 5.6 23:56:16 10° N 23:59:08 25° NNE 23:59:08 25° NNE visible
01 Sep 6.2 01:42:00 10° NNW 01:43:43 17° NW 01:43:43 17° NW visible
02 Sep 5.6 00:20:24 10° N 00:23:20 29° N 00:23:20 29° N visible
02 Sep 6.6 02:07:50 10° NW 02:07:56 10° NW 02:07:56 10° NW visible
02 Sep 6.0 23:01:02 10° NNE 23:02:59 16° NE 23:02:59 16° NE visible
03 Sep 5.7 00:44:53 10° NNW 00:47:34 27° NNW 00:47:34 27° NNW visible
03 Sep 5.7 23:24:27 10° NNE 23:27:13 23° NNE 23:27:13 23° NNE visible
04 Sep 6.1 01:09:43 10° NNW 01:11:48 20° NW 01:11:48 20° NW visible
04 Sep 5.5 23:48:27 10° N 23:51:27 29° NNE 23:51:27 29° NNE visible
05 Sep 6.5 01:35:09 10° NW 01:36:03 13° NW 01:36:03 13° NW visible
05 Sep 6.0 22:29:40 10° NE 22:31:07 13° NE 22:31:07 13° NE visible
06 Sep 5.6 00:12:49 10° N 00:15:43 29° NNW 00:15:43 29° NNW visible
06 Sep 5.7 22:52:43 10° NNE 22:55:23 21° NE 22:55:23 21° NE visible
07 Sep 5.9 00:37:30 10° NNW 00:39:58 24° NNW 00:39:58 24° NNW visible
07 Sep 5.4 23:16:33 10° N 23:19:40 29° NNE 23:19:40 29° NNE visible
08 Sep 6.3 01:02:40 10° NW 01:04:15 16° NW 01:04:15 16° NW visible
08 Sep 6.1 21:58:45 10° NE 21:59:21 11° NE 21:59:21 11° NE visible
08 Sep 5.4 23:40:47 10° N 23:43:57 32° N 23:43:57 32° N visible
